Location: Central Falls
(41.8900°N, 71.3929°W)
Time: 07:58:23
(UTC+00:00)

Altair - Pass Details

Date: 15 December 2023
Orbit: 1501 x 1682 km, 47.2° (Epoch: 29 February)

Event Time Altitude Azimuth Distance (km) Brightness Sun altitude
Rises 08:47:13 0° 207° (SSW) 4,911 - -36.0°
Reaches altitude 10° 08:50:39 10° 201° (SSW) 3,913 - -35.4°
Exits shadow 08:52:15 16° 196° (SSW) 3,473 9.2 -35.1°
Maximum altitude 08:59:43 41° 135° (SE) 2,237 8.5 -33.7°
Drops below altitude 10° 09:08:33 10° 70° (ENE) 3,813 10.3 -32.1°
Sets 09:11:49 0° 64° (ENE) 4,774 10.9 -31.5°
